Regional Weather Roundup
Issued by NWS

Home | Current Version | Previous Version | Text Only | Print | Product List | Glossary On
Versions: 1 2 3 4 5 6 7 8 9 10 11 12 13 14 15 16 17 18 19 20 21 22 23 24 25 26 27 28 29 30 31 32 33 34 35 36 37 38 39 40 41 42 43 44 45 46 47 48 49 50
521
ASUS43 KDMX 241706
RWRIA

WEATHER ROUNDUP FOR IOWA
NATIONAL WEATHER SERVICE DES MOINES IA
1200 PM CDT TUE APR 24 2018

NOTE: "FAIR" INDICATES FEW OR NO CLOUDS BELOW 12,000 FEET WITH NO
SIGNIFICANT WEATHER AND/OR OBSTRUCTIONS TO VISIBILITY.

* - THESE STATIONS ARE NOT NWS STATIONS...THUS NOT UNDER NWS
QUALITY CONTROL.  THEY ALSO DO NOT REPORT WEATHER SUCH
AS PRECIPITATION OR FOG.

IAZ001>003-012>014-020>022-031>034-043>046-241800-
   NORTHWEST IOWA

CITY           SKY/WX    TMP DP  RH WIND       PRES   REMARKS
CARROLL *      SUNNY     88  64  45 N9G15     30.13F HX  89
CHEROKEE *     PTSUNNY   64  41  42 N7        30.16F
DENISON *      MOSUNNY   70  36  28 VRB5G13   30.15S
LE MARS *      CLOUDY    59  43  55 N8G15     30.18S
ORANGE CITY *  CLOUDY    61  45  55 NE10G17   30.18F
SHELDON *      MOSUNNY   55  43  62 N15       30.18S
SIOUX CITY     CLOUDY    65  43  44 N6        30.16F
SPENCER        MOSUNNY   58  44  60 N13       30.18S
STORM LAKE *     N/A     63  41  45 N9G15     30.16S
$$

IAZ055>058-069>071-079>083-090>094-241800-
   SOUTHWEST IOWA

CITY           SKY/WX    TMP DP  RH WIND       PRES   REMARKS
ATLANTIC *     SUNNY     72  34  25 N6G13     30.12F
AUDUBON *      SUNNY     70  36  28 NW3       30.14F
CLARINDA *     SUNNY     72  28  20 CALM      30.15F
COUNCIL BLFS * PTSUNNY   70  36  28 SW6       30.13F
CRESTON *      SUNNY     70  34  26 NW12      30.14F
HARLAN  *      MOSUNNY   70  32  24 CALM      30.16F
LAMONI         SUNNY     71  35  26 MISG      30.11F
RED OAK *      SUNNY     72  32  23 NW7       30.13S
SHENANDOAH *   MOSUNNY   72  30  21 CALM      30.14S
$$

IAZ047>049-059>061-072>074-084-241800-
   CENTRAL IOWA

CITY           SKY/WX    TMP DP  RH WIND       PRES   REMARKS
AMES           CLOUDY    70  33  25 N8        30.12S
ANKENY *       SUNNY     70  34  26 NW8G16    30.13S
BOONE *        MOSUNNY   68  34  28 NW10      30.12F
CHARITON *     SUNNY     68  32  26 NE10G17   30.11S
DES MOINES     PTSUNNY   70  32  24 VRB3      30.12F
GRINNELL*      SUNNY     70  28  20 N10       30.11F
KNOXVILLE *    SUNNY     70  30  23 NE8       30.10S
MARSHALLTOWN   SUNNY     70  34  26 NW12      30.10F
NEWTON *       SUNNY     70  28  21 NW10      30.11S
PELLA *        SUNNY     72  30  21 N8        30.11F
PERRY *        FAIR      68  24  19 N7        30.13S
$$

IAZ004>006-015-016-023>025-035-036-241800-
   NORTH CENTRAL IOWA

CITY           SKY/WX    TMP DP  RH WIND       PRES   REMARKS
ALGONA *       SUNNY     63  46  55 N12       30.16S
CLARION *      SUNNY     66  41  39 N10       30.14F
ESTHERVILLE    MOSUNNY   59  46  62 N14       30.17S
FORT DODGE *   SUNNY     66  43  43 NE9       30.15F
MASON CITY     SUNNY     66  44  45 NW14      30.15S
FOREST CITY *  FAIR      64  43  45 N10       30.15S
WEBSTER CITY * SUNNY     68  37  32 N12       30.12S
IOWA FALLS *   FAIR      69  36  30 N9        30.13F
$$

IAZ007>011-017>019-026>030-037>042-050>054-066-241800-
   NORTHEAST IOWA

CITY           SKY/WX    TMP DP  RH WIND       PRES   REMARKS
CEDAR RAPIDS   FAIR      71  29  21 N9        30.08S
CHARLES CITY * FAIR      68  39  34 VRB6G13   30.12S
CLINTON *      FAIR      68  31  25 N9G16     30.06F
DECORAH *      FAIR      68  34  28 NW10      30.08F
DUBUQUE        FAIR      66  33  29 N15       30.07F
MONTICELLO *   FAIR      70  27  19 N13G20    30.07S
OELWEIN *      FAIR      68  32  26 N9        30.10S
WATERLOO       FAIR      70  32  24 NW7       30.09F
$$

IAZ064-065-067-068-078-241800-
   EAST CENTRAL IOWA

CITY           SKY/WX    TMP DP  RH WIND       PRES   REMARKS
DAVENPORT      FAIR      69  27  20 MISG      30.08S
IOWA CITY      FAIR      70  29  21 N8        30.09S
MT. PLEASANT * SUNNY     68  27  21 N10G16    30.07F
MUSCATINE *    FAIR      70  25  18 NE8G17    30.07S
QUAD CITIES    FAIR      69  28  21 N9G17     30.04F
$$

IAZ062-063-075>077-085>089-095>099-241800-
   SOUTHEAST IOWA

CITY           SKY/WX    TMP DP  RH WIND       PRES   REMARKS
BURLINGTON     SUNNY     68  33  27 NE9       30.06S
FAIRFIELD *    SUNNY     70  28  21 N14       30.08S
FORT MADISON * SUNNY     70  37  30 N7        30.07S
KEOKUK *       SUNNY     68  39  34 NE12      30.06F
OSKALOOSA *    FAIR      70  27  20 N12       30.09F
CENTERVILLE *    N/A     72  30  21 N9        30.11S
OTTUMWA        SUNNY     70  31  23 VRB3      30.09S
WASHINGTON *   SUNNY     70  30  23 N13       30.09S
$$

ABBREVIATIONS USED IN REMARKS
   TC - TEMPERATURES IN CELSIUS
  WCI - WIND CHILL INDEX
   HX - HEAT INDEX
  VSB - VISIBILITY
$$





USA.gov is the U.S. government's official web portal to all federal, state and local government web resources and services.